Location: Home
(42.5358°N, 72.7383°W)
Time: 05:49:04
(UTC-05:00)

A-11 Canister half - Pass Details

Date: 08 December 2021
Orbit: 1524 x 1684 km, 47.3° (Epoch: 17 January)

Event Time Altitude Azimuth Distance (km) Brightness Sun altitude
Exits shadow 00:56:51 10° 67° (ENE) 3,919 11.3 -64.9°
Drops below altitude 10° 00:56:58 10° 67° (ENE) 3,956 11.4 -64.9°
Sets 00:59:59 0° 67° (ENE) 4,895 12.0 -64.5°
